User: anonymous   Login
Location: Unnamed
(48.6007°N, 2.4808°E)
Time: 00:08:58
(UTC+02:00)
Language:

DX 1 - Orbit

View from above orbital plane
View from above orbital plane
View from above satellite
View from above satellite

Ground track
Ground track

The orbit data is extracted from the following two-line orbital elements,

1 40071U 14037C   24108.49965310  .00005176  00000-0  62148-3 0  9992
2 40071  98.3364  18.2372 0007124 329.5667  30.5132 14.84454257528634
Epoch (UTC): 17 April 2024 11:59:30
Eccentricity: 0.0007124
inclination: 98.3364°
perigee height: 610 km
apogee height: 620 km
right ascension of ascending node: 18.2372°
argument of perigee: 329.5667°
revolutions per day: 14.84454257
mean anomaly at epoch: 30.5132°
orbit number at epoch: 52863

The dashed part of the orbit path shows where the satellite is in the earth's shadow,  

DLR